Hauptseite
METAR-TAF:

METAR-TAF

Flughäfen :

Flughafen Lahr

Lahr, Deutschland

Breite: 48-22-09N, Länge: 007-49-40E, Höhe: 156 m

Beobachtung

Neuester Wetterbericht von vor 8 Stunden und 4 Minuten, um 17:50 UTC
Wind 2 kt aus unterschiedlichen Richtungen
Temperatur 13°C
Luftfeuchtigkeit 44%
Luftdruck 1019 hPa
Sichtweite 10 km oder mehr
keine Wolken unter 1500 m und keine Kumulonimbus oder Gewitterwolken

METAR: EDTL 071750Z VRB02KT CAVOK 13/01 Q1019

Zeit: 03:54 (01:54 UTC)

Prognose

Neuester Wetterbericht von vor 8 Stunden und 54 Minuten, um 17:00 UTC
Gültige Prognose vom 07 um 18 UTC bis 07 um 24 UTC
Wind 2 kt aus unterschiedlichen Richtungen
Sichtweite 10 km oder mehr
keine Wolken unter 1500 m und keine Kumulonimbus oder Gewitterwolken

TAF: EDTL 071700Z 0718/0724 VRB02KT CAVOK

Wetterbeobachtungen und Prognosen von mehr als 4000 Flughäfen (METAR und TAF Bericht).

Die verfügbaren Stationen werden durch gelbe und rote Markierungen auf der Karte dargestellt.

Führen Sie die Maus auf sie, um den Namen der Station zu sehen.

Darauf klicken, um die Beobachtung von Wetterbeobachtungen und Prognosen zu sehen.

Um die Karte zu ändern : klicken Sie auf den grünen Tasten mit einem schwarzen Kreuz Zum Vergrößern, auf den grünen Button mit einem Gedankenstrich zu verkleinern, oder auf die grünen Pfeile für benachbarte Karten.


METAR-TAF: